Location: Saint-Usage
(47.1052°N, 5.2587°E)
Time: 11:52:31
(UTC+02:00)

Nauka - Pass Details

Date: 26 September 2021
Orbit: 417 x 423 km, 51.6° (Epoch: 19 October)

Event Time Altitude Azimuth Distance (km) Brightness Sun altitude
Rises 20:56:01 0° 286° (WNW) 2,364 ? -15.6°
Reaches altitude 10° 20:58:13 10° 295° (WNW) 1,501 ? -16.0°
Maximum altitude 21:01:23 37° 5° (N) 671 ? -16.5°
Enters shadow 21:02:33 27° 49° (NE) 836 ? -16.7°
